Weather History for Jerez de la Frontera, Spain

Change the Weather History Date:

Monday, March 19, 2012

  Actual Average Record
Temperature  
Mean Temperature 55 °F -  
Max Temperature 71 °F 69 °F 78 °F (1997)
Min Temperature 39 °F 47 °F 41 °F (2008)
Degree Days  
Heating Degree Days 10    
Growing Degree Days 5 (Base 50)    
Moisture  
Dew Point 29 °F    
Average Humidity 36    
Maximum Humidity 70    
Minimum Humidity 18    
Precipitation  
Precipitation 0.00 in 0.07 in - ()
Sea Level Pressure  
Sea Level Pressure 30.22 in    
Wind  
Wind Speed 8 mph ()    
Max Wind Speed 21 mph    
Max Gust Speed 23 mph    
Visibility 6.7 miles    
Events      
Averages and records for this station are not official NWS values.
T = Trace of Precipitation, MM = Missing Value Source: Averaged Metar Reports

Daily Weather History Graph

Daily Weather History Graph

Search for Another Location

Airport:

Trip Planner

Search our weather history database for the weather conditions in past years. The results will help you decide how hot, cold, wet, or windy it might be!

Date:

Astronomy

Mar. 19, 2012 Rise Set
Actual Time 7:28 AM CET 7:35 PM CET
Civil Twilight 7:03 AM CET 8:01 PM CET
Nautical Twilight 6:32 AM CET 8:31 PM CET
Astronomical Twilight 6:02 AM CET 9:02 PM CET
Moon 5:29 AM CET (3/19) 4:52 PM CET (3/19)
Length of Visible Light 12h 58m
Length of Day
12h 06m
Waning Crescent, 10% of the Moon is Illuminated
Mar 19
Waning Crescent
Mar 22
New
Mar 30
First Quarter
Apr 6
Full
Apr 13
Last Quarter

Hourly Weather History & Observations

Time (CET) Temp. Windchill Dew Point Humidity Pressure Visibility Wind Dir Wind Speed Gust Speed Precip Events Conditions
1:00 AM 50 °F - 37 °F 50% 30.30 in 12 mi North 10.4 mph - -  
5:00 AM 44.6 °F - 32.0 °F 61% 30.24 in - Variable 1.2 mph - N/A   Clear
5:30 AM 44.6 °F - 32.0 °F 61% 30.24 in - Variable 1.2 mph - N/A   Clear
6:00 AM 44.6 °F - 32.0 °F 61% 30.24 in - Variable 2.3 mph - N/A   Clear
6:30 AM 41.0 °F - 32.0 °F 70% 30.24 in - Calm Calm - N/A   Clear
7:00 AM 40 °F - 33 °F 66% 30.27 in 22 mi Calm Calm - -  
7:00 AM 41.0 °F - 32.0 °F 70% 30.24 in - Variable 1.2 mph - N/A   Clear
7:30 AM 42.8 °F - 32.0 °F 66% 30.24 in - Variable 1.2 mph - N/A   Clear
8:00 AM 44.6 °F - 32.0 °F 61% 30.24 in - Variable 1.2 mph - N/A   Clear
8:30 AM 46.4 °F 42.9 °F 33.8 °F 62% 30.27 in - North 6.9 mph - N/A   Clear
9:00 AM 48.2 °F - 32.0 °F 54% 30.27 in - North 12.7 mph - N/A   Clear
9:30 AM 51.8 °F - 32.0 °F 47% 30.27 in - North 15.0 mph - N/A   Clear
10:00 AM 53.6 °F - 30.2 °F 41% 30.27 in - North 13.8 mph - N/A   Clear
10:30 AM 55.4 °F - 30.2 °F 38% 30.27 in - NNE 19.6 mph - N/A   Clear
11:00 AM 59.0 °F - 28.4 °F 31% 30.27 in - NNE 18.4 mph - N/A   Clear
11:30 AM 60.8 °F - 26.6 °F 27% 30.24 in - NE 20.7 mph - N/A   Clear
12:00 PM 64.4 °F - 26.6 °F 24% 30.24 in - NNE 15.0 mph - N/A   Clear
12:30 PM 64.4 °F - 28.4 °F 26% 30.24 in - NE 16.1 mph - N/A   Clear
1:00 PM 68 °F - 34 °F 18% 30.25 in 22 mi NE 13.8 mph - -  
1:00 PM 66.2 °F - 30.2 °F 26% 30.24 in - ENE 13.8 mph - N/A   Clear
1:30 PM 68.0 °F - 30.2 °F 24% 30.21 in - ENE 10.4 mph - N/A   Clear
2:00 PM 68.0 °F - 30.2 °F 24% 30.21 in - ENE 12.7 mph - N/A   Clear
2:30 PM 69.8 °F - 28.4 °F 21% 30.18 in - ENE 10.4 mph - N/A   Clear
3:00 PM 69.8 °F - 26.6 °F 20% 30.18 in - ENE 10.4 mph - N/A   Clear
3:30 PM 71.6 °F - 28.4 °F 20% 30.18 in 6.2 mi ENE 10.4 mph - N/A   Partly Cloudy
4:00 PM 71.6 °F - 26.6 °F 19% 30.15 in 6.2 mi North 13.8 mph - N/A   Partly Cloudy
4:30 PM 71.6 °F - 26.6 °F 19% 30.15 in 6.2 mi NE 9.2 mph - N/A   Partly Cloudy
5:00 PM 71.6 °F - 26.6 °F 19% 30.15 in 6.2 mi North 15.0 mph - N/A   Partly Cloudy
5:30 PM 69.8 °F - 24.8 °F 18% 30.15 in 6.2 mi NNE 18.4 mph - N/A   Partly Cloudy
6:00 PM 69.8 °F - 24.8 °F 18% 30.15 in 6.2 mi North 17.3 mph - N/A   Partly Cloudy
6:30 PM 69.8 °F - 24.8 °F 18% 30.15 in 6.2 mi North 16.1 mph - N/A   Partly Cloudy
7:00 PM 68.0 °F - 23.0 °F 18% 30.18 in 6.2 mi North 15.0 mph - N/A   Partly Cloudy
7:30 PM 66.2 °F - 23.0 °F 19% 30.18 in 6.2 mi North 11.5 mph - N/A   Partly Cloudy
8:00 PM 62.6 °F - 24.8 °F 24% 30.18 in 6.2 mi North 9.2 mph - N/A   Partly Cloudy
8:30 PM 60.8 °F - 23.0 °F 23% 30.21 in 6.2 mi North 10.4 mph 23.0 mph N/A   Partly Cloudy
9:00 PM 55.4 °F - 26.6 °F 33% 30.21 in - Variable 1.2 mph - N/A   Clear
9:30 PM 57.2 °F - 23.0 °F 27% 30.24 in - Variable 1.2 mph - N/A   Clear
10:00 PM 59.0 °F - 30.2 °F 34% 30.24 in - Variable 4.6 mph - N/A   Clear
10:30 PM 55.4 °F - 33.8 °F 44% 30.24 in - Variable 2.3 mph - N/A   Clear
11:00 PM 55.4 °F - 32.0 °F 41% 30.27 in - Variable 1.2 mph - N/A   Clear